Regional Weather Roundup
Issued by NWS Upton, NY

Home | Current Version | Previous Version | Text Only | Print | Product List | Glossary On
Versions: 1 2 3 4 5 6 7 8 9 10 11 12 13 14 15 16 17 18 19 20 21 22 23 24 25 26 27 28 29 30 31 32 33 34 35 36 37 38 39 40 41 42 43 44 45 46 47 48 49 50
000
ASUS41 KOKX 242308
RWROKX

REGIONAL WEATHER ROUNDUP
NATIONAL WEATHER SERVICE NEW YORK NY
600 PM EST FRI NOV 24 2017

NOTE: "FAIR" INDICATES FEW OR NO CLOUDS BELOW 12,000 FEET WITH NO
SIGNIFICANT WEATHER AND/OR OBSTRUCTIONS TO VISIBILITY.

NYZ071-072-176-178-NJZ106-104-250000-
NEW YORK CITY METRO AREA

CITY           SKY/WX    TMP DP  RH WIND       PRES   REMARKS
Central Park   CLEAR     47  27  45 VRB3      29.99R
Bronx Bot Gard   N/A     45  32  61 SE3       29.96F
Bronx Lehman C   N/A     48 N/A N/A S5          N/A
LaGuardia APRT PTCLDY    47  31  53 S7        29.97R
Queens College   N/A     46 N/A N/A S7          N/A
Kennedy INTL   CLEAR     46  33  60 S14       29.99S
Breezy Point     N/A     46 N/A N/A S9          N/A
Brooklyn Coll    N/A     48 N/A N/A S5          N/A
Staten Island    N/A     46 N/A N/A S5          N/A
Newark/Liberty CLEAR     47  28  47 S6        29.97R
Teterboro      CLEAR     46  28  49 VRB6      29.96R
$$

NYZ177-179-078>081-250000-
LONG ISLAND NEW YORK

CITY           SKY/WX    TMP DP  RH WIND       PRES   REMARKS
Jones Beach      N/A     48 N/A N/A SW8         N/A
Wantagh          N/A     46 N/A N/A S6          N/A
Matinecock PT    N/A     45 N/A N/A S5          N/A
Farmingdale    CLEAR     42  31  64 S3        29.98S
MacArthur/ISP  CLEAR     43  32  65 SW6       29.98R
Shirley        CLEAR     42  35  76 SW3       29.99S
Mt Sinai Harb    N/A    N/A N/A N/A S5          N/A
Westhampton    CLEAR     42  33  70 S6        29.99S
East Hampton   FAIR      44  34  68 SW6       29.98S
Southold         N/A     41 N/A N/A SW3         N/A
Montauk          N/A     48  38  68 VRB6      29.99S
$$

NYZ052-065-067-250000-
HUDSON VALLEY

CITY           SKY/WX    TMP DP  RH WIND       PRES   REMARKS
White Plains   CLEAR     42  27  55 S5        29.95R
Larchmont Harb   N/A     45 N/A N/A S14         N/A
Croton On Huds   N/A     46 N/A N/A S2          N/A
Somers           N/A     43 N/A N/A S5          N/A
Brewster         N/A     39 N/A N/A S1          N/A
Newburgh       CLEAR     45  25  45 VRB3      29.94R
Montgomery     CLEAR     37  25  61 SW3       29.91S
Suffern          N/A     43 N/A N/A S3          N/A
Poughkeepsie   CLEAR     45  22  40 SE3       29.92S
Albany         PTCLDY    45  25  45 S9        29.88R
$$

NJZ001-105-106-008-010-013-015-019>022-104-250000-
NEW JERSEY

CITY           SKY/WX    TMP DP  RH WIND       PRES   REMARKS
Newark/Liberty CLEAR     47  28  47 S6        29.97R
Teterboro      CLEAR     46  28  49 VRB6      29.96R
Caldwell       CLEAR     45  23  42 SW3       29.97R
Somerville     CLEAR     37  25  61 S3        29.95R
Linden         FAIR      46  22  38 CALM      29.97S
Perth Amboy      N/A     46 N/A N/A S5          N/A
Sussex         CLEAR     37  24  59 SW3       29.94R
Andover          N/A     35  28  75 CALM      29.95R
Trenton        CLEAR     45  24  43 SW3       29.97S
Millville      CLEAR     36  31  82 CALM      29.99F
Atlantic City  CLEAR     45  32  60 CALM      30.00S
Wrightstown    CLEAR     40  27  59 S6        29.96S
Toms River     CLEAR     37  32  82 S5        30.00S WCI  33
Belmar         CLEAR     42  30  62 CALM      29.99F
$$

PAZ047>061-062-071-250000-
EASTERN PENNSYLVANIA

CITY           SKY/WX    TMP DP  RH WIND       PRES   REMARKS
Philadelphia   CLEAR     47  29  49 S7        29.99R
Allentown      CLEAR     42  20  41 S3        29.95R
Scranton       CLEAR     46  20  35 S7        29.89S
$$

CTZ002-004>006-009-010-012-RIZ004-006-007-MAZ004-011-015-250000-
SOUTHERN NEW ENGLAND
 IN CT

CITY           SKY/WX    TMP DP  RH WIND       PRES   REMARKS
Bradley INTL   PTCLDY    43  25  49 S8        29.94R
Hartford       CLEAR     43  27  53 S7        29.96R
Danbury        CLEAR     38  26  62 S3        29.96R
Wtrbury/Oxford CLEAR     40  24  53 S6        29.95R
Norwalk Harbor   N/A     45 N/A N/A S17         N/A
Bridgeport     CLEAR     46  33  60 S14       29.97R
Meriden        CLEAR     39  29  67 S3        29.96R
New Haven      CLEAR     41  31  67 S5        29.97R
Chester        FAIR      41  30  65 S5        29.97R
Groton         CLEAR     46  34  62 SW13      29.98R
Wilimantic     CLEAR     42  27  55 S3        29.97R

 IN RI

CITY           SKY/WX    TMP DP  RH WIND       PRES   REMARKS
Providence     CLEAR     41  32  70 SW6       29.98R
Block Island     N/A    N/A N/A N/A MISG        N/A
Westerly       CLEAR     47  36  65 SW7       29.99R
 IN MA

CITY           SKY/WX    TMP DP  RH WIND       PRES   REMARKS
Boston         CLEAR     44  30  57 S13       29.95R
Worcester      CLEAR     40  24  53 S10       29.91R WCI  33
Westfield      CLEAR     40  25  55 S8        29.92R WCI  34
Provincetown   CLEAR     45  35  68 SW14G20   29.98R
Nantucket      CLEAR     46  39  76 SW12      30.00S
$$

ANZ330-335-338-340-345-350-353-355-250000-
COASTAL MARINE OBSERVATIONS


STATION/POSITION TIME  SKY/WX   TEMP    WIND        PRES    VSBY  WAVE
                                AIR SEA DIR/SP/G                  HT/PER
                 (UTC)          (F)     (DEG/KT/KT) (MB)    (MI)  (FT/S)
NY HARB ENTRANCE 2250            50 55  210/ 14/ 16 1014.7          3/10
20 S FIRE ISLAND 2150            48 56  220/ 10/ 12 1015.7          3/10
GREAT SOUTH BAY  2215            46 45  220/  8/ 10   N/A
HUDSON CANYON    2250            50 59  200/  6/  8 1016.0          4/10
KINGS POINT      2230            46 49  210/  9/ 10 1015.7
EXECUTION ROCKS  2230            47     160/ 12/ 14   N/A
WESTERN LI SOUND 2149            48     180/ 12/ 14   N/A           0
CENTRAL LI SOUND NOT AVBL
ROBBINS REEF     2230            48     190/  7/  8 1015.5
$$


>>>>>>>>>>>>>>>>>>>>>>>>>>>> KEY <<<<<<<<<<<<<<<<<<<<<<<<<<<
>                                                          <
>     SKY/WX - Sky Condition/Present Weather               <
>     TMP    - Temperature in Fahrenheit                   <
>     DP     - Dew Point in Fahrenheit                     <
>     RH     - Relative Humidity in Percent                <
>     WIND   - Direction (from) and Speed in MPH           <
>     PRES   - Mean Sea Level Pressure (inches of Hg)      <
>     WCI    - Wind Chill Index                            <
>     VSB    - VISIBILITY IN MILES                         <
>     HX     - HEAT INDEX                                  <
>     TC     - TEMPERATURE IN CELSIUS                      <
>     VRB    - VARIABLE WIND DIRECTION                     <
>                                                          <
>>>>>>>>>>>>>>>>>>>>>>>>>>>> KEY <<<<<<<<<<<<<<<<<<<<<<<<<<<



USA.gov is the U.S. government's official web portal to all federal, state and local government web resources and services.